Tracking 19242 objects as of 20-Sep-2018
HD Live streaming from Space Station
objects crossing your sky now

FENGYUN 1C DEB

Track FENGYUN 1C DEB now!
10-day predictions


NORAD ID: 31484
Int'l Code: 1999-025BVY
Perigee: 771.8 km
Apogee: 1,008.7 km
Inclination: 101.8 °
Period: 102.6 minutes
Semi major axis: 7261 km
RCS: 0.0099 m2 (small)
Launch date: May 10, 1999
Source: People's Republic of China (PRC)
Launch site: Taiyaun Space Center, China (TSC)

Note: This is SATELLITE DEBRIS
aabbcc
Your satellite tracking list
Your tracking list is empty




NASA's NSSDC Master Catalog

Two Line Element Set (TLE):
1 31484U 99025BVY 18262.62438487 +.00001228 +00000-0 +74064-3 0  9993
2 31484 101.8249 041.1658 0163100 042.4124 318.9505 14.03095301269217
Source of the keplerian elements: AFSPC